Showing default

COSMOS 1994, 19785

Orbit data source: Space-Track

COSMOS 1994, 19785 is a payload satellite owned by UNKS (CIS) in LEO that was launched on Fri, 10 Feb 1989 UTC via a TSIKLON-3 launch vehicle from the Plesetsk Missile And Space Complex (PKMTR). Payload-class satellites include a variety of spacecraft equipped with specific instruments for various scientific and technological missions. These include communications satellites like Starlink; space stations such as the ISS; scientific satellites like the Hubble; Earth observation satellites from companies like Planet Labs, Umbra, and HawkEye 360; GPS; miniature CubeSats for education and research; and military/defense satellites.

Loading next visibility...
Identifier
19785, 1989-009A
Orbit
LEO
Country
Flag of CISCIS
Related business
Manufacturer
NPO PM
Mission
Defense Communications
Bus & Motor
STRELA-3, Unknown motor
Mass
225 kg wet, 225 kg dry
Launch date (UTC)
1989-02-10 (37 years ago)
Launch vehicle
TSIKLON-3
Launch site
Plesetsk Missile And Space Complex (PKMTR)
Object type
Payload
Rocket body
Debris
Shape & HBR
Cyl, 0.8 m
Radar Cross Section
1.257 m², Large (>1 m²)

Expand to show TLE details & history
Last TLE update: 12 hours ago

TLE from 12 hours ago
0 COSMOS 1994
1 19785U 89009A   25311.01566750  .00000011  00000-0  45335-6 0  9996
2 19785  82.6179 133.2848 0013721  95.5152  74.0539 12.64336635695305
Epoch: 2025-11-07T00:22Z
TLE epoch observation values (Epoch: 2025-11-07T00:22:33.671Z)
Latitude
10.14316°
Longitude
-100.14279°
Altitude
1,404.17 km
Speed
7.16 km/s
True Right ascension
20h 47m 51s
True Declination
10° 05' 19"
Sunlit
Object was in daylight at epoch
Visualization orbit readout
Latitude
Unknown
Longitude
Unknown
Altitude
Unknown
Speed
Unknown
Apparent Right ascension
Unknown
Apparent Declination
Unknown
Sunlit
N/A
Visualization observer readout
Local Sidereal Time
08:07:56
Azimuth
Unknown
Elevation
Unknown
Doppler factor
Unknown
Orbital elements
Apogee altitude
1,413.088 km
Perigee altitude
1,391.737 km
Semi-major axis
7,780.549 km
Eccentricity
0.00137
Inclination
82.6179°
RAAN
133.2848°
Arg. of periapsis
95.5152°
True anomaly
74.20515°
Mean anomaly
74.0539°
Eccentric anomaly
74.12952°
Mean motion
3.16248 °/min
Orbital period
113.83 mins
BSTAR
4.5335e-7
Loading maneuver chart data...
Computing Atmospheric mass density...
Loading historical data...
Loading historical data...
Loading historical data...
Loading historical data...
Loading historical data...
Loading historical data...
Loading historical data...

Documentation

Showing up to 5 results
|